This demonstration page uses our WeatherBlox Daily Observations layout. Learn more.

Left ArrowRight Arrow

Hourly Observations for May 13, 2015

Temp ( °F °C ) Dew Point ( °F °C ) Humidity (%) Winds ( mph kmh ) Pressure ( in mb ) Visibility ( mi km ) Precip ( " mm )
12:52 am 00:52 Clear 53 11.7 42 5.6 66 66 S 7 11 30.26 1025 10 16 0.00 0.00
1:52 am 01:52 Clear 52 11.1 42 5.6 69 69 SE 6 9 30.26 1025 10 16 0.00 0.00
2:52 am 02:52 Clear 51 10.6 42 5.6 71 71 SE 7 11 30.25 1024 10 16 0.00 0.00
3:52 am 03:52 Clear 51 10.6 42 5.6 71 71 SE 8 13 30.25 1025 10 16 0.00 0.00
4:52 am 04:52 Clear 51 10.6 42 5.6 71 71 SSE 9 15 30.25 1024 10 16 0.00 0.00
5:52 am 05:52 Mostly Clear 49 9.4 42 5.6 77 77 SSE 7 11 30.25 1024 10 16 0.00 0.00
6:52 am 06:52 Partly Cloudy 50 10 42 5.6 74 74 SSE 8 13 30.25 1025 10 16 0.00 0.00
7:52 am 07:52 Mostly Cloudy 55 12.8 43 6.1 64 64 SSE 16 26 30.27 1025 10 16 0.00 0.00
8:52 am 08:52 Mostly Cloudy 60 15.6 44 6.7 56 56 SSE 18 30 30.26 1025 10 16 0.00 0.00
9:52 am 09:52 Mostly Cloudy 64 17.8 43 6.1 46 46 SSE 24 39 30.26 1025 10 16 0.00 0.00
10:52 am 10:52 Mostly Cloudy 67 19.4 43 6.1 42 42 SSE 28 44 30.24 1024 10 16 0.00 0.00
11:52 am 11:52 Mostly Cloudy 69 20.6 42 5.6 38 38 SSE 23 37 30.23 1024 10 16 0.00 0.00
12:52 pm 12:52 Mostly Cloudy 71 21.7 41 5 34 34 S 23 37 30.20 1023 10 16 0.00 0.00
1:52 pm 13:52 Mostly Cloudy 72 22.2 42 5.6 34 34 S 23 37 30.18 1022 10 16 0.00 0.00
2:52 pm 14:52 Mostly Cloudy 72 22.2 40 4.4 31 31 SSE 22 35 30.15 1021 10 16 0.00 0.00
3:52 pm 15:52 Mostly Cloudy 72 22.2 41 5 33 33 SSE 23 37 30.14 1021 10 16 0.00 0.00
4:52 pm 16:52 Cloudy 72 22.2 41 5 33 33 SSE 25 41 30.12 1020 10 16 0.00 0.00
5:52 pm 17:52 Cloudy 70 21.1 41 5 35 35 SSE 18 30 30.11 1020 10 16 0.00 0.00
6:52 pm 18:52 Cloudy 69 20.6 40 4.4 35 35 S 21 33 30.12 1020 10 16 0.00 0.00
7:52 pm 19:52 Cloudy with Light Rain 65 18.3 45 7.2 49 49 SSE 20 31 30.12 1020 10 16 0.00 0.03
8:52 pm 20:52 Cloudy with Light Rain 58 14.4 51 10.6 78 78 SSE 15 24 30.13 1020 8 13 0.00 0.03
9:52 pm 21:52 Cloudy 56 13.3 53 11.7 90 90 SE 10 17 30.12 1020 9 14 0.03 0.76
10:27 pm 22:27 Cloudy with Light Rain 56 13.3 53 11.7 90 90 SSE 13 20 30.12 1020 6 10 0.02 0.51
10:52 pm 22:52 Cloudy with Light Rain 56 13.3 53 11.7 90 90 SSE 14 22 30.14 1021 6 10 0.04 1.02
11:24 pm 23:24 Cloudy with Light Rain 55 13 54 12 94 94 SE 12 19 30.12 1020 6 10 0.00 0.00
11:52 pm 23:52 Cloudy with Light Rain 56 13.3 53 11.7 90 90 ESE 6 9 30.10 1019 7 11 0.06 1.52

Powered by AerisWeather